�������l�o���
Date,Time,MP-1(��Sv/h),MP-2(��Sv/h),MP-3(��Sv/h),MP-4(��Sv/h),MP-5(��Sv/h),MP-6(��Sv/h),MP-7(��Sv/h),MP-8(��Sv/h),����,����(m/s),���J
2018/04/02,00:00,0.883,1.466,0.915,1.715,1.169,0.489,0.859,0.824,���쐼,9.4,��
2018/04/02,00:10,0.883,1.470,0.915,1.712,1.171,0.491,0.860,0.824,���쐼,10.2,��
2018/04/02,00:20,0.882,1.466,0.918,1.714,1.171,0.490,0.862,0.823,�쐼,9.8,��
2018/04/02,00:30,0.881,1.470,0.915,1.714,1.169,0.491,0.862,0.824,�쐼,7.6,��
2018/04/02,00:40,0.880,1.468,0.914,1.713,1.169,0.490,0.861,0.825,�쐼,3.8,��
2018/04/02,00:50,0.880,1.467,0.915,1.714,1.170,0.490,0.861,0.825,��쓌,2.6,��
2018/04/02,01:00,0.881,1.466,0.915,1.714,1.167,0.490,0.861,0.825,��쓌,3.3,��
2018/04/02,01:10,0.883,1.468,0.916,1.713,1.167,0.491,0.860,0.824,��쓌,3.3,��
2018/04/02,01:20,0.882,1.468,0.915,1.713,1.172,0.491,0.862,0.825,��쓌,2.3,��
2018/04/02,01:30,0.882,1.469,0.914,1.714,1.168,0.491,0.861,0.824,��,2.0,��
2018/04/02,01:40,0.883,1.469,0.913,1.711,1.169,0.491,0.861,0.826,��,2.3,��
2018/04/02,01:50,0.881,1.469,0.915,1.714,1.168,0.491,0.860,0.825,��쓌,2.8,��
2018/04/02,02:00,0.881,1.469,0.914,1.714,1.168,0.492,0.861,0.824,�쓌,2.0,��
2018/04/02,02:10,0.880,1.468,0.914,1.714,1.170,0.491,0.863,0.824,��쓌,1.7,��
2018/04/02,02:20,0.882,1.467,0.915,1.712,1.169,0.492,0.862,0.823,�쓌,0.6,��
2018/04/02,02:30,0.879,1.467,0.913,1.713,1.170,0.491,0.859,0.824,�k��,1.7,��
2018/04/02,02:40,0.880,1.465,0.913,1.717,1.170,0.491,0.860,0.826,�k,2.2,��
2018/04/02,02:50,0.880,1.466,0.918,1.713,1.170,0.491,0.859,0.824,���k��,2.3,��
2018/04/02,03:00,0.881,1.468,0.916,1.712,1.169,0.491,0.861,0.824,���쐼,1.7,��
2018/04/02,03:10,0.882,1.466,0.915,1.710,1.170,0.490,0.859,0.823,��쐼,2.0,��
2018/04/02,03:20,0.881,1.465,0.913,1.712,1.169,0.490,0.861,0.823,���쐼,3.4,��
2018/04/02,03:30,0.881,1.467,0.915,1.714,1.171,0.491,0.860,0.822,��,3.4,��
2018/04/02,03:40,0.881,1.468,0.915,1.712,1.169,0.490,0.860,0.825,�쐼,4.9,��
2018/04/02,03:50,0.882,1.467,0.913,1.714,1.171,0.490,0.862,0.825,��,7.6,��
2018/04/02,04:00,0.882,1.467,0.915,1.714,1.172,0.492,0.863,0.825,��,7.3,��
2018/04/02,04:10,0.882,1.469,0.914,1.715,1.170,0.492,0.862,0.824,��,6.2,��
2018/04/02,04:20,0.882,1.468,0.914,1.712,1.170,0.491,0.861,0.823,��,4.8,��
2018/04/02,04:30,0.881,1.467,0.915,1.711,1.170,0.491,0.860,0.823,���k��,4.6,��
2018/04/02,04:40,0.879,1.466,0.913,1.710,1.168,0.490,0.861,0.824,���k��,4.2,��
2018/04/02,04:50,0.883,1.464,0.914,1.708,1.170,0.490,0.859,0.824,�k��,5.0,��
2018/04/02,05:00,0.881,1.466,0.915,1.714,1.169,0.489,0.858,0.825,�k��,5.1,��
2018/04/02,05:10,0.878,1.467,0.914,1.712,1.168,0.489,0.859,0.825,�k��,4.4,��
2018/04/02,05:20,0.878,1.466,0.912,1.711,1.168,0.488,0.859,0.823,�k�k��,3.9,��
2018/04/02,05:30,0.879,1.467,0.914,1.711,1.171,0.490,0.858,0.824,�k,5.8,��
2018/04/02,05:40,0.878,1.465,0.913,1.712,1.168,0.489,0.858,0.824,�k�k��,7.4,��
2018/04/02,05:50,0.876,1.467,0.913,1.714,1.168,0.488,0.856,0.822,�k�k��,6.9,��
2018/04/02,06:00,0.878,1.465,0.911,1.711,1.170,0.488,0.860,0.823,�k�k��,7.6,��
2018/04/02,06:10,0.877,1.464,0.913,1.715,1.168,0.488,0.859,0.823,�k�k��,8.6,��
2018/04/02,06:20,0.879,1.466,0.913,1.713,1.168,0.487,0.859,0.822,�k�k��,8.6,��
2018/04/02,06:30,0.878,1.465,0.915,1.716,1.169,0.487,0.858,0.821,�k�k��,7.2,��
2018/04/02,06:40,0.875,1.468,0.912,1.712,1.172,0.488,0.860,0.823,�k�k��,5.8,��
2018/04/02,06:50,0.877,1.466,0.911,1.715,1.166,0.486,0.857,0.824,�k�k��,6.1,��
2018/04/02,07:00,0.877,1.465,0.912,1.711,1.168,0.487,0.857,0.823,�k�k��,4.4,��
2018/04/02,07:10,0.879,1.469,0.912,1.713,1.168,0.488,0.858,0.823,�k,4.0,��
2018/04/02,07:20,0.876,1.468,0.911,1.713,1.167,0.487,0.857,0.822,�k,4.9,��
2018/04/02,07:30,0.877,1.467,0.912,1.712,1.168,0.486,0.857,0.821,�k,4.6,��
2018/04/02,07:40,0.878,1.466,0.909,1.711,1.167,0.487,0.859,0.823,�k�k��,3.5,��
2018/04/02,07:50,0.878,1.467,0.911,1.713,1.169,0.486,0.856,0.823,�k,4.2,��
2018/04/02,08:00,0.877,1.461,0.912,1.711,1.171,0.484,0.859,0.823,�k�k��,4.1,��
2018/04/02,08:10,0.878,1.465,0.910,1.703,1.169,0.483,0.857,0.822,�k�k��,4.4,��
2018/04/02,08:20,0.877,1.463,0.913,1.704,1.167,0.485,0.858,0.823,�k��,4.1,��
2018/04/02,08:30,0.876,1.466,0.910,1.711,1.170,0.484,0.857,0.824,�k��,4.7,��
2018/04/02,08:40,0.878,1.466,0.909,1.713,1.170,0.483,0.857,0.820,�k�k��,5.1,��
2018/04/02,08:50,0.878,1.464,0.912,1.715,1.171,0.483,0.857,0.821,�k�k��,5.1,��
2018/04/02,09:00,0.879,1.463,0.910,1.714,1.170,0.484,0.855,0.821,�k��,4.3,��
2018/04/02,09:10,0.879,1.462,0.912,1.713,1.170,0.484,0.855,0.822,�k�k��,4.7,��
2018/04/02,09:20,0.878,1.462,0.911,1.714,1.170,0.484,0.858,0.822,�k�k��,5.1,��
2018/04/02,09:30,0.879,1.463,0.914,1.716,1.168,0.484,0.857,0.819,�k�k��,4.6,��
2018/04/02,09:40,0.879,1.463,0.912,1.714,1.168,0.486,0.854,0.818,�k�k��,4.4,��
2018/04/02,09:50,0.877,1.465,0.911,1.713,1.167,0.483,0.856,0.818,�k�k��,5.1,��
2018/04/02,10:00,0.877,1.461,0.913,1.715,1.163,0.487,0.855,0.818,�k��,4.4,��
2018/04/02,10:10,0.876,1.459,0.912,1.716,1.167,0.485,0.857,0.819,�k�k��,4.8,��
2018/04/02,10:20,0.879,1.463,0.912,1.714,1.168,0.485,0.856,0.820,�k�k��,4.4,��
2018/04/02,10:30,0.878,1.461,0.911,1.713,1.170,0.489,0.857,0.818,�k�k��,4.7,��
2018/04/02,10:40,0.882,1.462,0.912,1.713,1.168,0.486,0.857,0.820,�k�k��,4.2,��
2018/04/02,10:50,0.876,1.466,0.913,1.716,1.169,0.485,0.856,0.819,�k��,3.7,��
2018/04/02,11:00,0.879,1.463,0.911,1.714,1.171,0.486,0.855,0.819,�k�k��,5.0,��
2018/04/02,11:10,0.879,1.463,0.913,1.715,1.169,0.486,0.856,0.820,�k�k��,4.8,��
2018/04/02,11:20,0.877,1.468,0.913,1.715,1.170,0.488,0.856,0.819,�k�k��,4.4,��
2018/04/02,11:30,0.880,1.467,0.914,1.715,1.169,0.487,0.855,0.821,�k�k��,3.9,��
2018/04/02,11:40,0.880,1.465,0.913,1.714,1.168,0.486,0.856,0.820,�k�k��,3.5,��
2018/04/02,11:50,0.879,1.467,0.913,1.715,1.169,0.486,0.856,0.822,�k�k��,3.9,��
2018/04/02,12:00,0.879,1.468,0.914,1.715,1.167,0.488,0.856,0.819,�k�k��,3.4,��
2018/04/02,12:10,0.881,1.468,0.914,1.716,1.169,0.487,0.856,0.822,�k�k��,3.2,��
2018/04/02,12:20,0.880,1.467,0.914,1.715,1.170,0.488,0.857,0.819,�k�k��,3.3,��
2018/04/02,12:30,0.880,1.472,0.913,1.713,1.171,0.487,0.856,0.820,�k��,4.4,��
2018/04/02,12:40,0.881,1.471,0.916,1.717,1.170,0.486,0.857,0.822,�k��,4.4,��
2018/04/02,12:50,0.880,1.467,0.914,1.714,1.171,0.487,0.856,0.823,�k�k��,4.2,��
2018/04/02,13:00,0.880,1.467,0.913,1.716,1.173,0.487,0.856,0.823,�k��,5.2,��
2018/04/02,13:10,0.878,1.470,0.913,1.717,1.169,0.486,0.858,0.823,�k��,4.4,��
2018/04/02,13:20,0.881,1.465,0.912,1.717,1.172,0.487,0.857,0.820,�k�k��,4.1,��
2018/04/02,13:30,0.880,1.466,0.910,1.717,1.169,0.487,0.856,0.819,�k�k��,5.1,��
2018/04/02,13:40,0.877,1.467,0.910,1.716,1.171,0.485,0.858,0.819,�k��,4.4,��
2018/04/02,13:50,0.878,1.464,0.912,1.714,1.169,0.487,0.858,0.820,�k��,4.6,��
2018/04/02,14:00,0.879,1.465,0.910,1.717,1.169,0.485,0.858,0.821,�k��,3.9,��
2018/04/02,14:10,0.875,1.464,0.913,1.715,1.169,0.484,0.858,0.820,�k�k��,4.3,��
2018/04/02,14:20,0.876,1.466,0.911,1.717,1.170,0.487,0.857,0.820,�k��,3.4,��
2018/04/02,14:30,0.877,1.464,0.909,1.719,1.170,0.486,0.858,0.819,�k�k��,3.5,��
2018/04/02,14:40,0.876,1.467,0.912,1.716,1.171,0.488,0.859,0.819,�k��,3.8,��
2018/04/02,14:50,0.874,1.468,0.909,1.716,1.170,0.488,0.859,0.818,�k�k��,3.5,��
2018/04/02,15:00,0.875,1.466,0.910,1.717,1.168,0.487,0.857,0.820,�k�k��,2.9,��
2018/04/02,15:10,0.876,1.463,0.911,1.718,1.170,0.487,0.859,0.820,�k��,3.0,��
2018/04/02,15:20,0.878,1.469,0.909,1.717,1.171,0.487,0.859,0.818,�k��,2.9,��
2018/04/02,15:30,0.877,1.467,0.910,1.718,1.172,0.487,0.859,0.819,�k��,3.2,��
2018/04/02,15:40,0.877,1.468,0.912,1.717,1.170,0.489,0.860,0.819,�k�k��,2.9,��
2018/04/02,15:50,0.879,1.470,0.911,1.718,1.170,0.488,0.857,0.818,�k�k��,2.0,��
2018/04/02,16:00,0.878,1.473,0.914,1.716,1.171,0.490,0.858,0.819,�k�k��,3.0,��
2018/04/02,16:10,0.876,1.470,0.912,1.717,1.173,0.489,0.857,0.820,�k�k��,3.4,��
2018/04/02,16:20,0.877,1.469,0.912,1.718,1.170,0.488,0.857,0.819,�k�k��,3.2,��
2018/04/02,16:30,0.877,1.472,0.915,1.717,1.168,0.489,0.858,0.820,�k�k��,3.1,��
2018/04/02,16:40,0.880,1.472,0.914,1.718,1.171,0.487,0.858,0.820,�k�k��,2.6,��
2018/04/02,16:50,0.881,1.471,0.914,1.717,1.168,0.489,0.857,0.821,�k�k��,2.3,��
2018/04/02,17:00,0.880,1.472,0.914,1.714,1.170,0.487,0.858,0.820,�k��,2.0,��
2018/04/02,17:10,0.879,1.472,0.913,1.714,1.170,0.488,0.857,0.822,�k�k��,2.2,��
2018/04/02,17:20,0.880,1.471,0.913,1.713,1.174,0.489,0.858,0.820,�k�k��,2.2,��
2018/04/02,17:30,0.881,1.469,0.913,1.716,1.170,0.486,0.856,0.823,�k�k��,2.3,��
2018/04/02,17:40,0.880,1.471,0.915,1.715,1.173,0.487,0.855,0.822,�k�k��,2.5,��
2018/04/02,17:50,0.879,1.472,0.914,1.715,1.171,0.487,0.856,0.823,�k,1.7,��
2018/04/02,18:00,0.878,1.472,0.916,1.712,1.171,0.487,0.858,0.822,�k,1.5,��
2018/04/02,18:10,0.878,1.470,0.913,1.713,1.172,0.488,0.856,0.825,�k�k��,1.4,��
2018/04/02,18:20,0.880,1.470,0.914,1.713,1.174,0.487,0.858,0.823,�k,1.2,��
2018/04/02,18:30,0.876,1.470,0.914,1.714,1.172,0.488,0.858,0.824,�k,1.5,��
2018/04/02,18:40,0.880,1.470,0.914,1.714,1.172,0.487,0.858,0.822,�k,1.7,��
2018/04/02,18:50,0.881,1.469,0.913,1.715,1.174,0.487,0.859,0.822,�k�k��,1.4,��
2018/04/02,19:00,0.879,1.471,0.913,1.716,1.170,0.488,0.859,0.821,�k,1.1,��
2018/04/02,19:10,0.878,1.470,0.914,1.714,1.173,0.487,0.857,0.823,�k,1.1,��
2018/04/02,19:20,0.878,1.469,0.915,1.713,1.172,0.486,0.859,0.824,�k�k��,0.8,��
2018/04/02,19:30,0.880,1.468,0.913,1.714,1.173,0.488,0.858,0.824,-,CALM,��
2018/04/02,19:40,0.880,1.469,0.913,1.714,1.172,0.486,0.859,0.822,-,CALM,��
2018/04/02,19:50,0.880,1.471,0.914,1.714,1.174,0.488,0.857,0.823,-,CALM,��
2018/04/02,20:00,0.877,1.470,0.913,1.712,1.173,0.487,0.858,0.822,�k�k��,0.6,��
2018/04/02,20:10,0.880,1.469,0.912,1.712,1.172,0.486,0.859,0.822,-,CALM,��
2018/04/02,20:20,0.880,1.471,0.913,1.714,1.173,0.487,0.858,0.823,-,CALM,��
2018/04/02,20:30,0.879,1.470,0.913,1.712,1.173,0.486,0.857,0.823,���쐼,1.1,��
2018/04/02,20:40,0.878,1.468,0.913,1.711,1.171,0.488,0.857,0.822,-,CALM,��
2018/04/02,20:50,0.878,1.467,0.914,1.711,1.173,0.487,0.857,0.822,��,0.9,��
2018/04/02,21:00,0.877,1.467,0.913,1.716,1.171,0.487,0.859,0.821,-,CALM,��
2018/04/02,21:10,0.878,1.469,0.914,1.712,1.171,0.487,0.859,0.822,-,CALM,��
2018/04/02,21:20,0.878,1.470,0.911,1.716,1.171,0.488,0.858,0.822,-,CALM,��
2018/04/02,21:30,0.879,1.469,0.912,1.713,1.169,0.488,0.858,0.820,���k��,0.6,��
2018/04/02,21:40,0.880,1.470,0.912,1.712,1.172,0.486,0.858,0.823,���쐼,0.6,��
2018/04/02,21:50,0.878,1.468,0.912,1.711,1.169,0.487,0.858,0.821,��쓌,0.9,��
2018/04/02,22:00,0.877,1.470,0.912,1.712,1.173,0.488,0.859,0.822,��,0.8,��
2018/04/02,22:10,0.878,1.468,0.912,1.711,1.171,0.486,0.858,0.821,��쓌,1.4,��
2018/04/02,22:20,0.877,1.468,0.912,1.711,1.172,0.486,0.857,0.821,�쓌,1.5,��
2018/04/02,22:30,0.878,1.468,0.913,1.712,1.170,0.485,0.858,0.823,��쓌,1.5,��
2018/04/02,22:40,0.879,1.471,0.913,1.714,1.171,0.486,0.858,0.821,��,1.7,��
2018/04/02,22:50,0.877,1.468,0.912,1.712,1.168,0.488,0.857,0.820,��쐼,1.7,��
2018/04/02,23:00,0.875,1.469,0.913,1.713,1.169,0.485,0.858,0.821,��쓌,1.2,��
2018/04/02,23:10,0.876,1.467,0.914,1.714,1.169,0.486,0.856,0.822,��쓌,1.7,��
2018/04/02,23:20,0.877,1.471,0.913,1.711,1.168,0.487,0.857,0.822,��,2.5,��
2018/04/02,23:30,0.878,1.464,0.912,1.712,1.173,0.487,0.857,0.821,��,3.1,��
2018/04/02,23:40,0.877,1.467,0.912,1.710,1.170,0.487,0.858,0.822,��,3.3,��
2018/04/02,23:50,0.878,1.466,0.913,1.711,1.168,0.486,0.856,0.822,��,3.4,��
